Location: Newark
(48.9886°N, 1.2358°E)
Time: 22:55:19
(UTC+00:00)

Vanguard 2 Rocket - All Passes

Search period start: 13 November 2019 00:00
Search period end: 23 November 2019 00:00
Orbit: 554 x 3326 km, 32.9° (Epoch: 13 November)

Date Brightness Start Highest point End Pass type
(mag) Time Alt. Az. Time Alt. Az. Time Alt. Az.
13 Nov - 02:02:39 10° SSE 02:04:44 12° SE 02:07:08 10° SE visible
13 Nov - 04:10:43 10° SW 04:16:29 27° SSE 04:25:16 10° ESE visible
13 Nov - 06:22:06 10° WSW 06:29:42 29° S 06:41:14 10° SE visible
13 Nov - 08:36:18 10° WSW 08:43:53 18° SSW 08:53:36 10° S daylight
14 Nov - 03:12:36 10° SSW 03:17:10 21° SSE 03:23:37 10° ESE visible
14 Nov - 05:23:13 10° WSW 05:29:47 28° S 05:39:51 10° SE visible
14 Nov - 07:36:09 10° WSW 07:43:34 21° SSW 07:53:43 10° SSE daylight
15 Nov - 02:15:03 10° S 02:18:06 15° SSE 02:21:55 10° ESE visible
15 Nov - 04:24:37 10° SW 04:30:09 26° S 04:38:28 10° SE visible
15 Nov - 06:36:37 10° WSW 06:43:26 23° SSW 06:53:11 10° SSE daylight
15 Nov - 08:54:05 10° SW 08:57:28 11° SSW 09:01:12 10° SSW daylight
16 Nov - 03:26:17 10° SW 03:30:47 22° SSE 03:37:10 10° ESE visible
16 Nov - 05:37:32 10° WSW 05:43:33 23° S 05:52:19 10° SE visible
16 Nov - 07:52:06 10° SW 07:57:15 14° SSW 08:03:34 10° S daylight
17 Nov - 02:28:18 10° SSW 02:31:38 17° SSE 02:35:55 10° SE visible
17 Nov - 04:38:45 10° SW 04:43:53 22° S 04:51:20 10° SE visible
17 Nov - 06:51:50 10° SW 06:57:12 16° SSW 07:04:09 10° SSE daylight
18 Nov - 01:31:14 10° S 01:32:39 11° SSE 01:34:12 10° SE visible
18 Nov - 03:40:15 10° SW 03:44:29 20° S 03:50:23 10° SE visible
18 Nov - 05:52:20 10° SW 05:57:20 18° SSW 06:04:04 10° SSE visible
19 Nov - 02:42:00 10° SSW 02:45:18 17° S 02:49:30 10° SE visible
19 Nov - 04:53:18 10° SW 04:57:43 18° S 05:03:39 10° SSE visible
20 Nov - 01:44:12 10° S 01:46:14 13° SSE 01:48:35 10° SE visible
20 Nov - 03:54:34 10° SW 03:58:17 17° S 04:03:10 10° SE visible
20 Nov - 06:08:41 10° SW 06:11:11 11° SSW 06:14:02 10° S visible
21 Nov - 02:56:06 10° SSW 02:59:02 15° S 03:02:42 10° SE visible
21 Nov - 05:08:48 10° SW 05:11:33 12° SSW 05:14:49 10° S visible
22 Nov - 01:57:54 10° SSW 01:59:56 13° S 02:02:14 10° SSE visible
22 Nov - 04:09:36 10° SSW 04:12:07 13° S 04:15:05 10° SSE visible
